[[{"header":{"parameterUnit":"m.s-1","parameterCategory":1,"la1":30.2991,"la2":30.254,"lo1":-89.0895,"lo2":-89.0444,"dy":0.0017,"dx":0.0017,"nx":28,"ny":28,"refTime":"2024-08-18T21:00:00:Z","depth":0,"parameterNumber":2,"parameterNumberName":"U-component_of_WINDS"},"data":[0,0,0,0,0,0,0,0,0,0,0,0,0,0,0,0,0,0,0,0,0,0,0,0,0,0,0,0,0,0,0,0,0,0,0,0,0,0,0,0,0,0,0,0,0,0,0,0,0,0,0,0,0,0,0,0,0,0,1.4753,1.4752,0,1.4741,1.4741,1.4741,1.4655,1.4653,1.4651,1.4649,1.4644,1.4646,1.4648,0,0,0,0,0,0,0,0,0,0,0,0,0,1.4706,1.4707,1.4753,1.4752,1.4752,1.4741,1.4741,1.4741,1.4656,1.4653,1.465,1.4648,1.4643,1.4646,1.4648,0,0,0,0,0,0,0,0,0,0,0,0,0,1.4714,1.4708,1.4753,1.4708,1.4704,1.4741,1.4741,1.4741,1.4656,1.4653,1.465,1.4647,1.4643,1.4645,1.4648,1.4729,0,0,1.4657,1.4658,0,0,0,0,0,0,0,0,1.4713,1.4716,1.4715,1.4711,1.4707,1.4696,1.4722,1.4737,1.4657,1.4675,1.4649,1.4645,1.4664,1.4665,1.467,1.4729,1.4728,1.4657,1.4659,1.466,1.4661,0,0,0,0,0,0,0,1.4713,1.4716,1.4748,1.4715,1.471,1.4691,1.4688,1.4725,1.4688,1.4673,1.4666,1.4666,1.4662,1.4668,1.4669,1.4728,1.4657,1.4659,1.4661,1.4662,1.4851,1.4854,0,0,0,0,0,0,1.4718,1.4716,1.4748,1.4748,1.4702,1.4694,1.4691,1.4703,1.4687,1.4681,1.4669,1.4662,1.4665,1.4666,1.4669,1.4762,1.466,1.4662,1.4664,1.4848,1.4852,1.4856,0,0,0,0,0,0,1.4717,1.4722,1.4749,1.473,1.4732,1.4698,1.4712,1.4704,1.471,1.4684,1.4677,1.4681,1.4662,1.4665,1.4714,1.4761,1.4664,1.4666,1.4844,1.4849,1.4854,1.495,0,0,0,0,0,0,1.4716,1.4722,1.4751,1.4731,1.4733,1.4793,1.4715,1.4706,1.4714,1.4706,1.4694,1.4689,1.466,1.471,1.4717,1.4763,1.4668,1.484,1.4846,1.4852,1.4943,1.4958,1.4971,0,0,0,0,0,1.4715,1.4781,1.4753,1.4758,1.4769,1.4796,1.4797,1.476,1.4719,1.4749,1.4731,1.469,1.4754,1.4716,1.4722,1.477,1.4837,1.4844,1.4852,1.4936,1.4955,1.497,0,0,0,0,0,0,1.4811,1.4778,1.4747,1.4808,1.4805,1.4781,1.4819,1.4781,1.4792,1.4784,1.4739,1.4737,1.4793,1.4786,1.4744,1.4847,1.4788,1.4797,1.485,1.4867,1.4881,1.4883,1.4671,0,0,0,0,0,1.4838,1.4861,1.4831,1.4888,1.4888,1.4853,1.4864,1.4835,1.4831,1.4831,1.4817,1.4817,1.4836,1.4851,1.4868,1.494,1.4937,1.4976,1.499,1.5002,1.5011,1.5048,1.5066,1.488,1.488,1.488,0,0,1.4898,1.4882,1.49,1.4907,1.4901,1.4928,1.4853,1.4885,1.4904,1.4836,1.4881,1.487,1.4867,1.4928,1.4954,1.4924,1.5061,1.5011,1.5021,1.5024,1.5058,1.5075,1.5091,1.4886,1.4885,1.4884,0,0,1.5018,1.5008,1.5054,1.5048,1.504,1.5015,1.5026,1.5008,1.4997,1.5041,1.499,1.5013,1.5048,1.5048,1.5052,1.5169,1.5131,1.5175,1.525,1.5287,1.5302,1.5314,1.5357,1.5373,1.5184,1.5184,1.5185,0,1.5094,1.5129,1.5083,1.5116,1.5121,1.5057,1.5104,1.5102,1.51,1.5106,1.5071,1.5113,1.5106,1.5165,1.5193,1.5199,1.5211,1.5178,1.5303,1.5315,1.5326,1.5367,1.5383,1.519,1.5189,1.5189,1.5188,0,1.5222,1.5247,1.5285,1.5282,1.5291,1.5331,1.5292,1.5307,1.5276,1.5256,1.5301,1.529,1.5303,1.5314,1.5286,1.5369,1.5351,1.531,1.5251,1.535,1.5387,1.5402,1.5198,1.5196,1.5194,1.5193,0,0,1.5408,1.5375,1.539,1.5387,1.537,1.539,1.5427,1.5436,1.545,1.545,1.5481,1.5511,1.5472,1.5477,1.5447,1.5479,1.5573,1.5434,1.5434,1.5462,1.5665,1.5698,1.5716,1.5546,1.5549,1.5551,1.5666,0,1.5525,1.5584,1.5542,1.561,1.5632,1.5569,1.5601,1.5596,1.5577,1.5595,1.5575,1.5597,1.5543,1.5546,1.5574,1.5556,1.5614,1.5546,1.5577,1.5579,1.5582,1.5735,1.577,1.5879,1.568,1.5682,1.5684,0,1.5671,1.5674,1.5743,1.5719,1.5727,1.5757,1.5761,1.5778,1.577,1.5754,1.5757,1.5719,1.5755,1.5693,1.5742,1.5697,1.5707,1.5699,1.5703,1.5707,1.564,1.5745,1.5913,1.593,1.5706,1.5704,1.5703,0,1.5802,1.5822,1.5866,1.5865,1.5838,1.5861,1.5851,1.5839,1.5847,1.5851,1.5856,1.5865,1.5872,1.588,1.5845,1.5803,1.59,1.5835,1.5889,1.589,1.5915,1.5915,1.6089,1.5917,1.5917,1.5917,1.5916,0,1.5939,1.5984,1.5924,1.5951,1.5999,1.595,1.6,1.5984,1.5973,1.5997,1.5943,1.5967,1.5918,1.5938,1.591,1.5956,1.5959,1.5948,1.5941,1.5954,1.5956,1.5963,1.5955,1.5921,1.592,1.5919,1.5919,0,1.6095,1.6056,1.61,1.6069,1.6062,1.6099,1.6074,1.6099,1.6074,1.6105,1.6109,1.6072,1.6092,1.6056,1.6073,1.6054,1.6118,1.6098,1.612,1.6115,1.6172,1.6168,1.6359,1.6382,1.6193,1.6195,1.6197,0,1.6187,1.6219,1.6191,1.6201,1.6193,1.6212,1.6218,1.617,1.6179,1.617,1.6196,1.621,1.6219,1.6253,1.6229,1.6241,1.6222,1.6288,1.6224,1.6236,1.6226,1.6225,1.6229,1.6303,1.6305,1.6307,1.6308,0,1.6355,1.6332,1.6342,1.6345,1.6353,1.6354,1.6351,1.6363,1.6312,1.6325,1.6342,1.6349,1.6363,1.6379,1.6383,1.6375,1.6335,1.6328,1.6341,1.6357,1.637,1.6365,1.6159,1.6325,1.6323,1.6322,1.6321,1.632,1.6483,1.6508,1.6491,1.6504,1.6495,1.6492,1.6513,1.6489,1.6502,1.6508,1.6478,1.6503,1.6491,1.6493,1.6489,1.6508,1.6479,1.6498,1.6504,1.651,1.652,1.6363,1.6509,1.6508,1.6508,1.6507,1.6507,0,1.6649,1.6634,1.6645,1.664,1.665,1.6605,1.6599,1.6611,1.6632,1.6623,1.6631,1.6651,1.6665,1.6639,1.6649,1.6669,1.6651,1.6674,1.6674,1.6673,1.6544,1.6532,1.6689,1.6689,1.6689,1.6689,1.6689,1.6689,1.6738,1.6778,1.6753,1.6789,1.6773,1.6794,1.6794,1.6791,1.6784,1.6807,1.6817,1.6799,1.6784,1.6791,1.6802,1.6794,1.6801,1.6832,1.6818,1.6699,1.6682,1.6665,1.6654,1.6833,1.6833,1.6945,1.6946,1.6946]},{"header":{"parameterUnit":"m.s-1","parameterCategory":1,"la1":30.2991,"la2":30.254,"lo1":-89.0895,"lo2":-89.0444,"dy":0.0017,"dx":0.0017,"nx":28,"ny":28,"refTime":"2024-08-18T21:00:00:Z","depth":0,"parameterNumber":3,"parameterNumberName":"V-component_of_WINDS"},"data":[0,0,0,0,0,0,0,0,0,0,0,0,0,0,0,0,0,0,0,0,0,0,0,0,0,0,0,0,0,0,0,0,0,0,0,0,0,0,0,0,0,0,0,0,0,0,0,0,0,0,0,0,0,0,0,0,0,0,-0.4103,-0.4104,0,-0.4187,-0.4188,-0.4189,-0.4244,-0.4244,-0.4245,-0.4245,-0.4332,-0.4334,-0.4336,0,0,0,0,0,0,0,0,0,0,0,0,0,-0.3993,-0.3995,-0.4103,-0.4104,-0.4105,-0.4187,-0.4188,-0.4189,-0.4244,-0.4244,-0.4245,-0.4245,-0.4332,-0.4334,-0.4337,0,0,0,0,0,0,0,0,0,0,0,0,0,-0.4055,-0.3995,-0.4103,-0.4142,-0.4147,-0.4186,-0.4188,-0.4189,-0.4244,-0.4244,-0.4245,-0.4245,-0.4331,-0.4334,-0.4337,-0.4344,0,0,-0.4346,-0.4347,0,0,0,0,0,0,0,0,-0.4052,-0.4059,-0.4136,-0.414,-0.4145,-0.4205,-0.4181,-0.4241,-0.4244,-0.4207,-0.4245,-0.4246,-0.429,-0.4296,-0.4311,-0.4349,-0.4352,-0.4346,-0.4348,-0.4349,-0.435,0,0,0,0,0,0,0,-0.4047,-0.4056,-0.4136,-0.4137,-0.4142,-0.4157,-0.4166,-0.4193,-0.4244,-0.421,-0.4214,-0.4223,-0.4293,-0.4308,-0.4313,-0.4354,-0.4346,-0.4349,-0.4351,-0.4352,-0.4401,-0.4401,0,0,0,0,0,0,-0.4036,-0.4052,-0.4134,-0.4139,-0.4098,-0.4158,-0.4169,-0.4185,-0.4244,-0.4254,-0.4223,-0.4226,-0.4302,-0.431,-0.4317,-0.4329,-0.4349,-0.4352,-0.4354,-0.4402,-0.4401,-0.4401,0,0,0,0,0,0,-0.4034,-0.4043,-0.413,-0.4097,-0.4109,-0.4159,-0.4178,-0.4187,-0.4202,-0.4254,-0.4264,-0.4229,-0.4303,-0.4312,-0.4337,-0.4333,-0.4353,-0.4356,-0.4402,-0.4401,-0.4401,-0.4355,0,0,0,0,0,0,-0.403,-0.4042,-0.4045,-0.4096,-0.411,-0.4149,-0.4178,-0.4188,-0.4207,-0.4211,-0.4262,-0.4271,-0.4304,-0.4332,-0.434,-0.4338,-0.4359,-0.4403,-0.4402,-0.4401,-0.4357,-0.4353,-0.4349,0,0,0,0,0,-0.4026,-0.4029,-0.4045,-0.4055,-0.4115,-0.4149,-0.4157,-0.4194,-0.4206,-0.421,-0.4243,-0.4269,-0.4332,-0.4334,-0.4343,-0.4342,-0.4403,-0.4402,-0.4401,-0.4359,-0.4353,-0.4349,0,0,0,0,0,0,-0.3978,-0.4037,-0.4055,-0.4074,-0.4106,-0.4158,-0.4164,-0.4188,-0.4217,-0.422,-0.4266,-0.4277,-0.4297,-0.4322,-0.4323,-0.4352,-0.4371,-0.4371,-0.4335,-0.4331,-0.4327,-0.4321,-0.4361,0,0,0,0,0,-0.3969,-0.3991,-0.4041,-0.4054,-0.4068,-0.4113,-0.4129,-0.4155,-0.419,-0.4204,-0.4239,-0.4272,-0.4299,-0.4316,-0.4344,-0.436,-0.4372,-0.4364,-0.436,-0.4356,-0.4357,-0.4367,-0.4364,-0.4397,-0.4397,-0.4397,0,0,-0.3952,-0.3987,-0.3998,-0.4045,-0.4072,-0.4094,-0.4124,-0.4146,-0.4163,-0.4207,-0.4233,-0.4259,-0.4299,-0.4319,-0.433,-0.4341,-0.435,-0.4355,-0.4352,-0.4354,-0.4366,-0.4362,-0.436,-0.4396,-0.4396,-0.4397,0,0,-0.3933,-0.3961,-0.3974,-0.4,-0.4041,-0.407,-0.4073,-0.4121,-0.414,-0.4166,-0.42,-0.422,-0.4266,-0.4293,-0.4313,-0.4301,-0.4327,-0.4309,-0.4289,-0.4298,-0.4296,-0.4294,-0.429,-0.4288,-0.4309,-0.4309,-0.4309,0,-0.3907,-0.394,-0.3978,-0.3998,-0.4017,-0.4057,-0.4071,-0.4095,-0.4143,-0.4156,-0.4167,-0.4225,-0.4254,-0.4282,-0.4278,-0.4293,-0.4298,-0.4304,-0.4293,-0.4291,-0.429,-0.4287,-0.4285,-0.4306,-0.4307,-0.4307,-0.4307,0,-0.3906,-0.3929,-0.3935,-0.3979,-0.3999,-0.4015,-0.4056,-0.4072,-0.4096,-0.4124,-0.4149,-0.4186,-0.4222,-0.423,-0.4254,-0.426,-0.4266,-0.4284,-0.4304,-0.4284,-0.4282,-0.4281,-0.4303,-0.4304,-0.4305,-0.4305,0,0,-0.3861,-0.3924,-0.3926,-0.3946,-0.3992,-0.4011,-0.4029,-0.4063,-0.4076,-0.4107,-0.4124,-0.4161,-0.4177,-0.42,-0.4227,-0.4235,-0.4223,-0.4252,-0.4254,-0.4246,-0.4233,-0.422,-0.4218,-0.424,-0.4239,-0.4239,-0.423,0,-0.3849,-0.3883,-0.3917,-0.3939,-0.396,-0.3997,-0.4013,-0.4044,-0.407,-0.4092,-0.4122,-0.4147,-0.4167,-0.4181,-0.4191,-0.4223,-0.4222,-0.4224,-0.4256,-0.4257,-0.4246,-0.4217,-0.4203,-0.4192,-0.4229,-0.4229,-0.4229,0,-0.384,-0.3868,-0.3892,-0.3936,-0.3946,-0.3959,-0.3993,-0.4013,-0.4049,-0.4067,-0.4091,-0.4119,-0.414,-0.4156,-0.4186,-0.4187,-0.4202,-0.4219,-0.422,-0.4226,-0.4243,-0.4222,-0.419,-0.4189,-0.4228,-0.4228,-0.4228,0,-0.3805,-0.3849,-0.3868,-0.3884,-0.3936,-0.3944,-0.3966,-0.4002,-0.402,-0.4049,-0.4061,-0.4093,-0.411,-0.4134,-0.417,-0.4178,-0.4196,-0.4215,-0.4213,-0.4212,-0.4216,-0.4216,-0.4186,-0.4224,-0.4224,-0.4224,-0.4224,0,-0.3789,-0.3802,-0.3853,-0.3866,-0.3882,-0.392,-0.3935,-0.3961,-0.3991,-0.401,-0.4044,-0.406,-0.4106,-0.4128,-0.4156,-0.4176,-0.4184,-0.42,-0.4207,-0.4198,-0.4196,-0.4209,-0.4211,-0.4223,-0.4223,-0.4223,-0.4224,0,-0.3753,-0.3788,-0.3812,-0.3858,-0.387,-0.3879,-0.3919,-0.3933,-0.396,-0.3983,-0.399,-0.4033,-0.4061,-0.4098,-0.4138,-0.4157,-0.4174,-0.4185,-0.4162,-0.4166,-0.4162,-0.4162,-0.4142,-0.4141,-0.4177,-0.4177,-0.4177,0,-0.3741,-0.3752,-0.3798,-0.3812,-0.3833,-0.3855,-0.3873,-0.3911,-0.3929,-0.3969,-0.3977,-0.4007,-0.4033,-0.4075,-0.4111,-0.4141,-0.4154,-0.4144,-0.4159,-0.4148,-0.4154,-0.4154,-0.4155,-0.4141,-0.4141,-0.414,-0.414,0,-0.3717,-0.3733,-0.3757,-0.3786,-0.3806,-0.3832,-0.3859,-0.3869,-0.3913,-0.3931,-0.3959,-0.3978,-0.4018,-0.4047,-0.4081,-0.4105,-0.413,-0.4134,-0.4136,-0.4127,-0.4113,-0.4121,-0.4153,-0.4135,-0.4136,-0.4136,-0.4136,-0.4137,-0.3693,-0.3704,-0.3738,-0.3764,-0.3788,-0.3812,-0.3827,-0.3855,-0.3879,-0.3913,-0.3934,-0.3961,-0.3995,-0.4044,-0.4065,-0.4087,-0.4098,-0.4099,-0.41,-0.41,-0.4097,-0.4108,-0.4094,-0.4094,-0.4094,-0.4094,-0.4094,0,-0.3671,-0.3694,-0.3717,-0.3753,-0.3773,-0.3793,-0.3824,-0.3839,-0.3862,-0.3891,-0.3916,-0.3947,-0.3975,-0.4012,-0.4043,-0.4053,-0.4065,-0.406,-0.4061,-0.4065,-0.4086,-0.4082,-0.405,-0.405,-0.405,-0.405,-0.405,-0.405,-0.3662,-0.3682,-0.3702,-0.3734,-0.3757,-0.3783,-0.3799,-0.3821,-0.3845,-0.3878,-0.3901,-0.3924,-0.3957,-0.399,-0.4016,-0.4026,-0.4037,-0.4028,-0.4041,-0.406,-0.4064,-0.4068,-0.4065,-0.4029,-0.4029,-0.402,-0.402,-0.4019]}]]